Weather History for Provo, UT

Change the Weather History Date:

Friday, November 1, 2013

  Actual Average Record
Temperature  
Mean Temperature 46 °F -  
Max Temperature 55 °F 50 °F 73 °F (1988)
Min Temperature 37 °F 30 °F 23 °F (2002)
Degree Days  
Heating Degree Days 19    
Moisture  
Dew Point 34 °F    
Average Humidity 62    
Maximum Humidity 81    
Minimum Humidity 38    
Precipitation  
Precipitation 0.00 in - - ()
Sea Level Pressure  
Sea Level Pressure 30.26 in    
Wind  
Wind Speed 5 mph (SW)    
Max Wind Speed 13 mph    
Max Gust Speed -    
Visibility 12 miles    
Events      
Averages and records for this station are not official NWS values.
T = Trace of Precipitation, MM = Missing Value Source: NWS Daily Summary

Daily Weather History Graph

Daily Weather History Graph

Search for Another Location

Airport:

Trip Planner

Search our weather history database for the weather conditions in past years. The results will help you decide how hot, cold, wet, or windy it might be!

Date:

Astronomy

Nov. 01, 2013 Rise Set
Actual Time 7:56 AM MDT 6:23 PM MDT
Civil Twilight 7:28 AM MDT 6:51 PM MDT
Nautical Twilight 6:56 AM MDT 7:23 PM MDT
Astronomical Twilight 6:24 AM MDT 7:55 PM MDT
Moon 5:52 AM MDT (11/1) 5:18 PM MDT (11/1)
Length of Visible Light 11h 23m
Length of Day
10h 26m
Waning Crescent, 4% of the Moon is Illuminated
Nov 1
Waning Crescent
Nov 3
New
Nov 9
First Quarter
Nov 17
Full
Nov 25
Last Quarter

Hourly Weather History & Observations

Time (MDT) Temp. Windchill Dew Point Humidity Pressure Visibility Wind Dir Wind Speed Gust Speed Precip Events Conditions
12:15 AM 46.4 °F - 35.6 °F 66% 30.20 in 10.0 mi Calm Calm - N/A   Overcast
12:35 AM 46.4 °F - 35.6 °F 66% 30.20 in 10.0 mi Calm Calm - N/A   Overcast
12:55 AM 46.4 °F - 33.8 °F 62% 30.21 in 10.0 mi Calm Calm - N/A   Overcast
1:15 AM 46.4 °F 45.2 °F 35.6 °F 66% 30.20 in 10.0 mi East 3.5 mph - N/A   Overcast
1:35 AM 46.4 °F - 33.8 °F 62% 30.20 in 10.0 mi Calm Calm - N/A   Overcast
1:55 AM 48.2 °F - 33.8 °F 58% 30.20 in 10.0 mi SW 8.1 mph - N/A   Overcast
2:15 AM 48.2 °F - 30.2 °F 50% 30.20 in 10.0 mi SW 9.2 mph - N/A   Overcast
2:35 AM 48.2 °F - 33.8 °F 58% 30.21 in 10.0 mi SW 10.4 mph - N/A   Overcast
2:55 AM 48.2 °F - 33.8 °F 58% 30.22 in 10.0 mi WSW 12.7 mph - N/A   Overcast
3:15 AM 48.2 °F - 32.0 °F 54% 30.22 in 10.0 mi WSW 11.5 mph - N/A   Overcast
3:35 AM 48.2 °F - 33.8 °F 58% 30.22 in 10.0 mi SW 11.5 mph - N/A   Overcast
3:55 AM 48.2 °F - 33.8 °F 58% 30.23 in 10.0 mi SW 10.4 mph - N/A   Overcast
4:15 AM 48.2 °F - 35.6 °F 62% 30.23 in 10.0 mi SW 9.2 mph - N/A   Overcast
4:35 AM 48.2 °F - 35.6 °F 62% 30.23 in 10.0 mi SW 9.2 mph - N/A   Overcast
4:55 AM 48.2 °F - 33.8 °F 58% 30.23 in 10.0 mi SW 9.2 mph - N/A   Overcast
5:15 AM 48.2 °F - 35.6 °F 62% 30.24 in 10.0 mi SW 8.1 mph - N/A   Overcast
5:35 AM 48.2 °F - 35.6 °F 62% 30.25 in 10.0 mi SW 11.5 mph - N/A   Overcast
5:55 AM 48.2 °F - 33.8 °F 58% 30.25 in 10.0 mi SW 9.2 mph - N/A   Overcast
6:15 AM 48.2 °F - 33.8 °F 58% 30.27 in 10.0 mi SW 10.4 mph - N/A   Mostly Cloudy
6:35 AM 48.2 °F - 33.8 °F 58% 30.27 in 10.0 mi SW 9.2 mph - N/A   Mostly Cloudy
6:51 AM 48.2 °F - 35.6 °F 62% 30.27 in 10.0 mi SW 9.2 mph - N/A   Mostly Cloudy
6:55 AM 48.2 °F - 35.6 °F 62% 30.27 in 10.0 mi SW 8.1 mph - N/A   Overcast
7:55 AM 48.2 °F - 35.6 °F 62% 30.29 in 15.0 mi SW 5.8 mph - N/A   Mostly Cloudy
8:51 AM 48.2 °F - 37.4 °F 66% 30.32 in 15.0 mi SW 6.9 mph - N/A   Mostly Cloudy
9:52 AM 48.2 °F - 37.4 °F 66% 30.33 in 15.0 mi WSW 5.8 mph - N/A   Mostly Cloudy
11:50 AM 51.8 °F - 37.4 °F 58% 30.33 in 15.0 mi WSW 5.8 mph - N/A   Scattered Clouds
12:48 PM 53.6 °F - 35.6 °F 51% 30.33 in 15.0 mi WSW 5.8 mph - N/A   Scattered Clouds
1:55 PM 55.4 °F - 33.8 °F 44% 30.31 in 15.0 mi WSW 4.6 mph - N/A   Scattered Clouds
2:55 PM 55.4 °F - 30.2 °F 38% 30.28 in 15.0 mi SW 4.6 mph - N/A   Partly Cloudy
3:50 PM 55.4 °F - 32.0 °F 41% 30.28 in 15.0 mi SSW 5.8 mph - N/A   Partly Cloudy
4:55 PM 55.4 °F - 35.6 °F 47% 30.27 in 15.0 mi SSW 5.8 mph - N/A   Partly Cloudy
5:48 PM 53.6 °F - 33.8 °F 47% 30.27 in 15.0 mi Calm Calm - N/A   Clear
6:59 PM 48.2 °F - 35.6 °F 62% 30.26 in 15.0 mi Calm Calm - N/A   Clear
7:50 PM 46.4 °F - 30.2 °F 53% 30.27 in 15.0 mi Calm Calm - N/A   Clear
8:54 PM 42.8 °F - 33.8 °F 70% 30.28 in 15.0 mi Calm Calm - N/A   Clear
9:15 PM 44.6 °F - 35.6 °F 71% 30.28 in 10.0 mi Calm Calm - N/A   Clear
9:35 PM 42.8 °F 41.1 °F 33.8 °F 70% 30.27 in 10.0 mi South 3.5 mph - N/A   Clear
9:55 PM 39.2 °F - 33.8 °F 81% 30.27 in 10.0 mi Calm Calm - N/A   Clear
10:15 PM 39.2 °F 34.2 °F 33.8 °F 81% 30.27 in 10.0 mi SSE 6.9 mph - N/A   Clear
10:35 PM 39.2 °F 35.0 °F 32.0 °F 75% 30.28 in 10.0 mi SSE 5.8 mph - N/A   Clear
10:55 PM 39.2 °F 37.0 °F 32.0 °F 75% 30.28 in 10.0 mi ESE 3.5 mph - N/A   Clear
11:15 PM 39.2 °F 37.0 °F 33.8 °F 81% 30.28 in 10.0 mi SE 3.5 mph - N/A   Clear
11:35 PM 37.4 °F - 30.2 °F 75% 30.27 in 10.0 mi Calm Calm - N/A   Clear
11:55 PM 37.4 °F 33.8 °F 30.2 °F 75% 30.27 in 10.0 mi South 4.6 mph - N/A   Clear